2022/12/24 00:00:00,52.4,-4.8
2022/12/24 00:10:00,52.2,-4.6
2022/12/24 00:20:00,52.0,-4.8
2022/12/24 00:30:00,51.8,-4.9
2022/12/24 00:40:00,51.6,-4.7
2022/12/24 00:50:00,51.5,-4.7
2022/12/24 01:00:00,51.4,-4.9
2022/12/24 01:10:00,51.3,-4.8
2022/12/24 01:20:00,51.2,-4.9
2022/12/24 01:30:00,51.1,-4.8
2022/12/24 01:40:00,51.0,-4.7
2022/12/24 01:50:00,50.8,-4.9
2022/12/24 02:00:00,50.7,-4.8
2022/12/24 02:10:00,50.6,-5.1
2022/12/24 02:20:00,50.5,-4.5
2022/12/24 02:30:00,50.4,-4.5
2022/12/24 02:40:00,50.3,-4.4
2022/12/24 02:50:00,50.3,-4.4
2022/12/24 03:00:00,50.2,-4.2
2022/12/24 03:10:00,50.1,-4.3
2022/12/24 03:20:00,50.0,-4.1
2022/12/24 03:30:00,49.8,-4.1
2022/12/24 03:40:00,49.8,-4.1
2022/12/24 03:50:00,49.7,-4.0
2022/12/24 04:00:00,49.6,-3.9
2022/12/24 04:10:00,49.5,-3.7
2022/12/24 04:20:00,49.4,-3.8
2022/12/24 04:30:00,49.3,-3.9
2022/12/24 04:40:00,49.2,-3.9
2022/12/24 04:50:00,49.2,-3.9
2022/12/24 05:00:00,49.1,-3.8
2022/12/24 05:10:00,49.3,-3.8
2022/12/24 05:20:00,49.6,-3.8
2022/12/24 05:30:00,50.1,-3.7
2022/12/24 05:40:00,50.9,-3.6
2022/12/24 05:50:00,51.4,-3.4
2022/12/24 06:00:00,51.9,-3.5
2022/12/24 06:10:00,52.4,-3.5
2022/12/24 06:20:00,53.0,-3.4
2022/12/24 06:30:00,53.9,-3.6
2022/12/24 06:40:00,54.5,-3.1
2022/12/24 06:50:00,54.7,-3.1
2022/12/24 07:00:00,54.9,-3.3
2022/12/24 07:10:00,55.0,-3.0
2022/12/24 07:20:00,55.1,-2.9
2022/12/24 07:30:00,55.8,-3.0
2022/12/24 07:40:00,56.1,-2.6
2022/12/24 07:50:00,56.1,-2.6
2022/12/24 08:00:00,56.5,-2.5
2022/12/24 08:10:00,56.7,-2.3
2022/12/24 08:20:00,57.3,-2.4
2022/12/24 08:30:00,58.0,-2.2
2022/12/24 08:40:00,58.2,-2.0
2022/12/24 08:50:00,58.2,-2.2
2022/12/24 09:00:00,58.5,-2.1
2022/12/24 09:10:00,58.9,-1.9
2022/12/24 09:20:00,59.0,-2.0
2022/12/24 09:30:00,58.9,-1.3
2022/12/24 09:40:00,58.8,-1.1
2022/12/24 09:50:00,58.7,-1.5
2022/12/24 10:00:00,58.5,-1.3
2022/12/24 10:10:00,58.3,-1.4
2022/12/24 10:20:00,58.2,-1.0
2022/12/24 10:30:00,58.4,-0.8
2022/12/24 10:40:00,58.7,-0.9
2022/12/24 10:50:00,59.1,-1.0
2022/12/24 11:00:00,59.6,-1.1
2022/12/24 11:10:00,59.7,-0.9
2022/12/24 11:20:00,59.8,-0.4
2022/12/24 11:30:00,59.6,-0.4
2022/12/24 11:40:00,59.5,-0.5
2022/12/24 11:50:00,59.6,-0.5
2022/12/24 12:00:00,59.8,-0.5
2022/12/24 12:10:00,60.0,-0.5
2022/12/24 12:20:00,60.1,-0.4
2022/12/24 12:30:00,60.2,-0.7
2022/12/24 12:40:00,60.3,-0.7
2022/12/24 12:50:00,60.4,-0.9
2022/12/24 13:00:00,60.2,-0.8
2022/12/24 13:10:00,60.3,-1.0
2022/12/24 13:20:00,60.7,-1.0
2022/12/24 13:30:00,60.4,-0.6
2022/12/24 13:40:00,60.1,-0.7
2022/12/24 13:50:00,59.9,-0.8
2022/12/24 14:00:00,59.8,-0.8
2022/12/24 14:10:00,59.5,-0.5
2022/12/24 14:20:00,59.5,-0.6
2022/12/24 14:30:00,59.5,-0.7
2022/12/24 14:40:00,59.4,-0.7
2022/12/24 14:50:00,59.3,-0.6
2022/12/24 15:00:00,59.3,-0.6
2022/12/24 15:10:00,59.2,-0.7
2022/12/24 15:20:00,59.5,-0.7
2022/12/24 15:30:00,59.6,-0.5
2022/12/24 15:40:00,59.6,-1.0
2022/12/24 15:50:00,60.1,-1.1
2022/12/24 16:00:00,60.4,-1.1
2022/12/24 16:10:00,60.4,-1.0
2022/12/24 16:20:00,60.3,-1.3
2022/12/24 16:30:00,60.3,-0.9
2022/12/24 16:40:00,60.4,-1.1
2022/12/24 16:50:00,60.2,-1.1
2022/12/24 17:00:00,60.1,-1.1
2022/12/24 17:10:00,60.1,-1.1
2022/12/24 17:20:00,60.2,-1.2
2022/12/24 17:30:00,60.6,-1.3
2022/12/24 17:40:00,61.1,-1.4
2022/12/24 17:50:00,61.1,-1.4
2022/12/24 18:00:00,61.6,-1.2
2022/12/24 18:10:00,62.0,-1.3
2022/12/24 18:20:00,62.3,-1.3
2022/12/24 18:30:00,62.1,-1.1
2022/12/24 18:40:00,61.9,-1.1
2022/12/24 18:50:00,61.7,-1.0
2022/12/24 19:00:00,61.4,-1.1
2022/12/24 19:10:00,61.7,-1.0
2022/12/24 19:20:00,62.2,-1.1
2022/12/24 19:30:00,62.1,-1.1
2022/12/24 19:40:00,62.1,-1.1
2022/12/24 19:50:00,62.3,-0.8
2022/12/24 20:00:00,62.6,-1.2
2022/12/24 20:10:00,62.7,-1.0
2022/12/24 20:20:00,62.6,-0.9
2022/12/24 20:30:00,62.5,-1.1
2022/12/24 20:40:00,62.3,-1.2
2022/12/24 20:50:00,62.2,-1.3
2022/12/24 21:00:00,62.1,-1.0
2022/12/24 21:10:00,61.9,-1.1
2022/12/24 21:20:00,62.0,-1.0
2022/12/24 21:30:00,62.3,-0.9
2022/12/24 21:40:00,62.4,-0.9
2022/12/24 21:50:00,62.5,-1.0
2022/12/24 22:00:00,62.5,-0.8
2022/12/24 22:10:00,62.3,-0.9
2022/12/24 22:20:00,62.3,-1.0
2022/12/24 22:30:00,62.3,-0.9
2022/12/24 22:40:00,62.5,-1.2
2022/12/24 22:50:00,62.8,-0.7
2022/12/24 23:00:00,62.8,-0.9
2022/12/24 23:10:00,62.8,-0.7
2022/12/24 23:20:00,62.9,-0.8
